Tracking 35280 objects as of 7-Sep-2026
HD Live streaming from Space Station
objects crossing your sky now

STARLINK-35525

Track STARLINK-35525 now!
10-day predictions
STARLINK-35525 is classified as:


NORAD ID: 66134
Int'l Code: 2025-237W
Launch date: October 22, 2025
Source: United States (US)
Launch site: AIR FORCE WESTERN TEST RANGE (AFWTR)
Your satellite tracking list
Your tracking list is empty




NASA's NSSDC Master Catalog

Two Line Element Set (TLE):
1 66134U 25237W   26249.38104697  .00010037  00000-0  30777-3 0  9998
2 66134  53.1590 277.6027 0001670  75.9359 284.1830 15.34401466 50317
Source of the keplerian elements: AFSPC